Regional Weather Roundup
Issued by NWS

Home | Current Version | Previous Version | Text Only | Print | Product List | Glossary Off
Versions: 1 2 3 4 5 6 7 8 9 10 11 12 13 14 15 16 17 18 19 20 21 22 23 24 25 26 27 28 29 30 31 32 33 34 35 36 37 38 39 40 41 42 43 44 45 46 47 48 49 50

000
ASUS45 KBOU 261007
RWRCO

WEATHER ROUNDUP FOR COLORADO
NATIONAL WEATHER SERVICE DENVER/BOULDER CO
400 AM MDT THU MAR 26 2015

NOTE: "FAIR" INDICATES FEW OR NO CLOUDS BELOW 12000 FEET WITH NO
SIGNIFICANT WEATHER AND/OR OBSTRUCTIONS TO VISIBILITY.

COZ001>005-013-030-031-261100-
...NORTHWEST COLORADO...

CITY           SKY/WX    TMP DP  RH WIND       PRES   REMARKS
CRAIG          CLEAR     22  17  81 CALM      30.35F
HAYDEN         CLEAR     25  18  74 E6        30.34F WCI  18
MEEKER         CLEAR     26  18  71 E8        30.36F WCI  18
MOUNT WERNER   NOT AVBL
STEAMBOAT SPGS CLEAR     23  19  86 E3        30.34F
WALDEN         CLEAR     21  14  73 SE7       30.28F WCI  13
$$

COZ006>008-011-261100-
...WEST CENTRAL VALLEYS...

CITY           SKY/WX    TMP DP  RH WIND       PRES   REMARKS
GRAND JUNCTION CLEAR     28  15  58 CALM      30.34R
MONTROSE       CLEAR     31  17  56 S7        30.37R WCI  24
EAGLE          CLEAR     21  19  93 E6        30.40S WCI  14
RIFLE          CLEAR     26  17  68 CALM      30.38R
DELTA          CLEAR     31  19  62 CALM      30.36R
NUCLA          CLEAR     30  14  51 E8        30.37R WCI  23
$$

COZ017>023-064>068-261100-
...SOUTHWEST COLORADO...

CITY           SKY/WX    TMP DP  RH WIND       PRES   REMARKS
DURANGO        PTCLDY    24  14  65 E5        30.24F WCI  18
CORTEZ         CLEAR     27  12  53 E8        30.28F WCI  19
PAGOSA SPRINGS PTCLDY    29  10  44 CALM      30.26F
TELLURIDE      PTCLDY    24  12  60 SE5       30.36R WCI  18
WOLF CREEK PAS PTCLDY    16  -4  41 NE6       30.34S WCI   7
$$

COZ009-010-012-014-032>034-037-058>063-261100-
...CENTRAL COLORADO...

CITY           SKY/WX    TMP DP  RH WIND       PRES   REMARKS
ASPEN          PTCLDY    21  14  74 S7        30.36R WCI  12
BUENA VISTA    CLEAR     30   9  41 NW13      30.26F WCI  20
COPPER MTN     CLOUDY    16   9  73 W17       30.31R WCI   0
BERTHOUD PASS  LGT SNOW   9   1  72 MISG      30.21S VSB 3/4
COTTONWOOD PAS CLEAR     28   5  37 W8G22     30.25F WCI  20
GUNNISON       CLEAR     19  12  73 S3        30.36R
KREMMLING      CLEAR     21  18  86 E5        30.35S WCI  15
LEADVILLE      PTCLDY    10   4  76 N6        30.31R WCI   0
SALIDA         CLEAR     25  19  78 CALM      30.35S
SUNLIGHT       CLEAR     21  14  73 NW3       30.39S
WILKERSON PASS MOCLDY    14   9  79 NW13G24   30.25F WCI   0
$$

COZ069>075-261100-
...SAN LUIS VALLEY/SANGRE DE CRISTO MOUNTAINS...

CITY           SKY/WX    TMP DP  RH WIND       PRES   REMARKS
ALAMOSA        PTCLDY    15  11  83 CALM      30.28R
LA VETA PASS   PTCLDY    19  12  73 MISG      30.25R
SAGUACHE       PTCLDY    28  10  47 N8        30.29R WCI  20
$$

COZ035-036-038>040-261100-
...NORTHERN COLORADO FRONT RANGE...

CITY           SKY/WX    TMP DP  RH WIND       PRES   REMARKS
DENVER INTL AP PTCLDY    32  25  75 SW13      30.18F WCI  22
DMNS CITY PARK   N/A     33  22  66 S6        30.19S WCI  27
AURORA         NOT AVBL
FRONT RANGE AP CLEAR     34  28  80 SW13      30.19F WCI  25
ERIE MUNI ARPT CLEAR     29  28  96 CALM      30.19F
BOULDER MUN AP CLEAR     32  28  86 S3        30.18F
CENTENNIAL     PTCLDY    31  20  63 SW9       30.19F WCI  23
BROOMFIELD     CLEAR     37  19  48 W22G28    30.18F
FORT COLLINS   CLOUDY    30  28  93 NW5       30.20F VSB<1/4 WCI  25
LONGMONT       CLEAR     29  26  90 CALM      30.21F
$$

COZ041-046-047-076>085-087-088-261100-
...PIKES PEAK/PALMER DIVIDE AND SOUTHERN FOOTHILLS...

CITY           SKY/WX    TMP DP  RH WIND       PRES   REMARKS
COLO. SPRINGS  PTCLDY    25  20  81 N3        30.23F
A. F. ACADEMY  CLEAR     19  15  84 N6        30.21F WCI  11
ELLICOTT       CLEAR    N/A N/A N/A CALM      30.21F
FALCON         CLEAR     25  21  85 W8        30.22F WCI  16
FORT CARSON    CLEAR     26  21  81 NW7       30.21F WCI  18
LIMON          MOCLDY    24  22  91 N6        30.20F WCI  17
MONUMENT HILL  PTCLDY    23  16  74 SW10      30.20S WCI  12
TRINIDAD       CLEAR     27  21  78 SW14      30.25F WCI  16
$$

COZ042>045-048>051-090-091-261100-
...NORTHEAST COLORADO...

CITY           SKY/WX    TMP DP  RH WIND       PRES   REMARKS
GREELEY ARPT   CLEAR     27  19  74 CALM      30.18F
AKRON          PTCLDY    30  28  92 SW10      30.18F WCI  21
BURLINGTON     PTCLDY    29  26  89 W8        30.20F WCI  21
WRAY           MOCLDY    29  28  94 SW7       30.20F WCI  22
STERLING       PTCLDY    27  27 100 S7        30.18F WCI  19
HOLYOKE        CLEAR     27  23  86 CALM      30.19F
FORT MORGAN    PTCLDY    29  27  92 W6        30.19F WCI  23
$$

COZ086-089-092>099-261100-
...SOUTHEAST COLORADO...

CITY           SKY/WX    TMP DP  RH WIND       PRES   REMARKS
PUEBLO         PTCLDY    28  27  96 W5        30.25R WCI  23
LA JUNTA       CLEAR     32  28  85 SW7       30.25S WCI  26
LAMAR          CLEAR     27  26  96 SW8       30.23F WCI  19
SPRINGFIELD      N/A     28  26  92 W7        30.24F WCI  21
$$


USA.gov is the U.S. government's official web portal to all federal, state and local government web resources and services.